sat.trackr.live / text

‹ back to catalog

STARLINK-38029

NORAD 69752 · 2026-150P

PAYLOAD ACTIVE UNKNOWN

§ Identity

Operator
Country
US
Launch date
2026-07-02
Launch site
AFWTR
Launch vehicle
Mass (kg)
RCS (m²)

Purposes: comms

External: N2YO · Heavens-Above · Gunter

§ Orbital elements

Epoch: 2026-09-20T00:06:03.926304Z

Period
93.91 min
Inclination
97.2865°
Eccentricity
0.0001435
Mean motion
15.33445497 rev/d
Perigee alt
464.6 km
Apogee alt
466.5 km
Semi-major
6,843.7 km
B*
3.5207e-4
RAAN
101.9954°
Arg perigee
85.8702°
Mean anomaly
274.2705°
Rev number
1,366

§ Raw data

STARLINK-380291 69752U 26150P   26263.00421211  .00011308  00000+0  35207-3 0  99952 69752  97.2865 101.9954 0001435  85.8702 274.2705 15.33445497 13668

JSON: /api/v1/satellites/69752 · /tle

For live sub-satellite position, see the globe view (requires WebGL).

§ Visibility from observer

Set your observer location to see the next 7 days of passes ≥ 10°. The values pass through the URL so the page stays shareable.

No JS? Fill the form by hand. The geolocation button needs JavaScript.